Location: Clegg Observatory
(38.9178°N, 78.6069°W)
Time: 01:24:36
(UTC-04:00)

Daily predictions for brighter satellites

Satellite Brightness Start Highest point End
(mag) Time Altitude Azimuth Time Altitude Azimuth Time Altitude Azimuth
SL-16 R/B 4.2 00:33:19 21° NE 00:33:19 21° NE 00:35:07 10° NNE
Cosmos 2333 Rocket 3.8 00:46:51 30° NNW 00:46:51 30° NNW 00:50:34 10° N
CZ-4C R/B 3.4 00:39:30 10° NNW 00:44:55 56° NW 00:44:55 56° NW
ATLAS 3B R/B 4.2 00:44:41 10° NNW 00:50:20 26° NE 00:51:14 26° NE
Cosmos 2237 Rocket 3.9 00:56:36 30° NNW 00:56:36 30° NNW 00:59:54 10° N
Cosmos 2278 Rocket 4.2 00:54:05 10° NW 00:56:09 22° NW 00:56:09 22° NW
CZ-2C R/B 4.4 01:14:44 10° N 01:17:28 29° NNW 01:17:28 29° NNW
USA 215 4.4 01:17:57 10° NE 01:21:27 34° ENE 01:21:27 34° ENE
Cosmos 2369 Rocket 3.7 01:53:26 10° N 01:56:56 32° NNE 01:56:56 32° NNE
ATLAS 2AS CENTAUR R/B 3.2 02:00:29 64° NNW 02:00:29 64° NNW 02:07:49 10° NNE
SL-16 R/B 4.2 02:15:10 21° NW 02:15:10 21° NW 02:18:24 10° N
Cosmos 1943 Rocket 3.5 02:20:17 10° N 02:25:05 35° NE 02:25:05 35° NE
ATLAS 3B R/B 3.8 02:34:54 10° NW 02:38:26 33° NW 02:38:26 33° NW
SL-16 R/B 3.8 02:49:25 28° ESE 02:51:38 36° ENE 02:57:10 10° N
USA 238 DEB 4.2 02:46:50 10° NW 02:52:03 52° NW 02:52:03 52° NW
USA 238 4.1 02:46:56 10° NW 02:52:12 53° NW 02:52:12 53° NW
Cosmos 2218 Rocket 4.4 02:57:08 10° N 03:02:00 56° NNW 03:02:00 56° NNW
USA 215 4.3 03:01:18 10° NE 03:07:09 37° NNW 03:08:48 32° WNW
Cosmos 2366 rocket 4.2 03:03:45 10° N 03:09:00 61° NNW 03:09:00 61° NNW
Cosmos 1943 4.2 03:12:41 37° NW 03:12:41 37° NW 03:16:56 10° N
Lacrosse 5 rocket 4.2 03:14:44 13° ESE 03:14:44 13° ESE 03:16:01 10° E
GEOS 3 Rocket 4.0 03:09:06 10° NE 03:13:30 60° ENE 03:13:30 60° ENE
COSMOS 2455 3.9 03:13:53 10° NNW 03:19:36 43° NE 03:25:15 10° SE
ARIANE 5 R/B 3.3 03:14:46 10° NNE 03:19:42 45° E 03:19:42 45° E
Meteor 2-14 Rocket 4.4 03:16:07 10° N 03:21:59 82° NNW 03:21:59 82° NNW
Meteor 2-21 Rocket 4.4 03:17:47 10° N 03:23:26 73° NW 03:23:26 73° NW
Meteor 2-16 Rocket 4.3 03:17:52 10° N 03:23:59 84° E 03:24:01 84° E
Cosmos 923 Rocket 4.3 03:26:00 62° N 03:26:00 62° N 03:30:29 10° NNE
NOSS 3-2 (C) 4.2 03:17:43 10° NNW 03:25:17 72° NE 03:33:26 10° SE
RESURS DK-1 4.0 03:28:13 32° ENE 03:28:13 32° ENE 03:30:48 10° NE
USA 267 3.1 03:32:03 10° SE 03:38:36 83° SW 03:45:10 10° NW
NPP 4.3 03:36:36 10° N 03:41:02 42° NW 03:41:02 42° NW
Cosmos 2369 Rocket 4.3 03:37:55 10° NW 03:38:41 13° NW 03:38:41 13° NW
CENTAUR R/B 4.3 03:35:53 10° NNW 03:43:10 40° NE 03:50:55 10° ESE
Cosmos 192 4.5 03:44:35 68° E 03:44:35 68° E 03:49:21 10° NNE
Cosmos 1842 4.4 03:47:25 41° NNE 03:47:25 41° NNE 03:50:04 10° NNE
CBERS 1 LM4 rocket 4.5 03:41:23 10° N 03:46:40 82° WNW 03:46:40 82° WNW
COBE Rocket 4.1 03:42:11 10° NNE 03:47:14 64° E 03:47:37 62° SE
Tiangong 1 4.1 03:50:41 14° ENE 03:50:41 14° ENE 03:51:12 10° ENE
Cosmos 724 4.2 03:42:35 10° NNW 03:48:42 85° ENE 03:52:25 24° SSE
NOSS 3-4 (A) 3.6 03:49:10 55° W 03:49:58 60° NW 03:56:23 10° NNE
NOSS 3-4 (C) 3.6 03:49:15 56° W 03:50:04 61° NW 03:56:30 10° NNE
ADEOS Rocket 3.0 03:44:28 10° NNE 03:50:29 87° E 03:52:01 56° S
Nadezhda 3 Rocket 3.9 03:53:26 62° WSW 03:54:05 66° W 04:00:24 10° N
Meteor 1-22 Rocket 4.3 03:51:26 10° NNW 03:56:23 56° WNW 03:56:23 56° WNW
Resurs 1-4 Rocket 1.9 03:52:28 10° N 03:57:44 75° WNW 03:58:03 72° WSW
COSMOS 2406 3.1 03:57:45 67° SSW 03:58:35 88° WNW 04:04:23 10° NNE
Cosmos 2112 Rocket 4.1 04:00:33 58° WNW 04:00:38 58° WNW 04:05:52 10° N
CZ-2D R/B 2.0 03:55:50 10° N 04:01:08 72° WNW 04:01:33 68° WSW
Cosmos 1544 4.1 03:57:44 10° N 04:00:19 42° N 04:00:19 42° N
MOZ.5/SAFIR/RUBIN 5/SL-8 4.5 03:59:03 24° SE 04:01:34 51° ENE 04:06:06 10° N
NOSS 3-2 (A) 4.1 04:00:06 10° NW 04:07:31 55° WSW 04:15:26 10° S
Cosmos 1943 Rocket 3.7 04:04:12 10° NW 04:06:33 22° WNW 04:06:33 22° WNW
NOSS 2-2 (C) 4.0 04:09:36 47° SE 04:09:55 48° ESE 04:14:11 10° NE
Cosmos 1953 2.6 04:07:28 10° N 04:11:26 65° E 04:12:01 56° SE
Cosmos 1758 Rocket 3.5 04:15:54 62° SSE 04:16:35 81° E 04:20:57 10° N
Cosmos 1707 4.5 04:15:03 19° SE 04:17:05 30° E 04:20:30 10° NNE
Cosmos 1624 Rocket 4.1 04:13:11 10° NNW 04:18:25 75° ENE 04:23:37 10° SSE
USA 32 3.9 04:18:56 49° SSW 04:20:21 78° W 04:25:38 10° N
Cosmos 1470 4.0 04:16:47 10° N 04:20:28 39° E 04:23:46 12° SSE
Cosmos 1727 Rocket 4.5 04:16:46 15° SSE 04:21:47 57° E 04:27:49 10° NNE
Cosmos 1758 3.2 04:22:15 10° NNW 04:26:21 71° W 04:26:35 68° WSW
Cosmos-2242 4.0 04:22:13 10° N 04:26:30 47° E 04:30:43 10° SSE
USA 161 2.3 04:27:46 48° N 04:27:46 48° N 04:30:02 10° N
ADEOS 4.1 04:22:57 10° N 04:27:47 39° WNW 04:28:35 37° W
UNKNOWN OBJECT B 2.9 04:27:21 10° N 04:31:16 58° WNW 04:31:32 56° W
Cosmos 2056 Rocket 3.4 04:26:05 10° NNW 04:31:26 89° W 04:36:41 10° SSE
SL-16 R/B 3.1 04:34:30 33° WSW 04:35:11 34° W 04:40:45 10° NNW
Cosmos 921 Rocket 3.0 04:32:40 10° NNW 04:37:10 88° ENE 04:41:41 10° SSE
Cosmos 1953 Rocket 3.7 04:36:52 47° WSW 04:37:42 55° W 04:42:05 10° N
Cosmos 374 Rocket 4.4 04:34:36 10° NNW 04:38:22 75° NE 04:42:30 10° SE
Cosmos 1821 Rocket 4.4 04:38:34 10° NNW 04:44:13 41° W 04:46:40 29° SW
MOS 1 Rocket 3.0 04:42:47 10° N 04:47:06 72° WNW 04:49:12 30° SSW
PSLV R/B 4.4 04:43:35 10° NNE 04:47:38 60° E 04:50:47 16° S
CZ-4B R/B 3.9 04:44:33 10° NNE 04:48:43 49° E 04:53:02 10° S
MOS 1-B 4.3 04:44:01 10° NNE 04:49:51 83° WNW 04:54:14 18° SSW
Cosmos 1378 3.9 04:48:41 14° SSE 04:51:43 52° E 04:55:22 10° NNE
Lacrosse 5 rocket 1.6 04:50:27 34° SW 04:52:27 80° NW 04:57:08 10° NE
SL-27 R/B 3.8 04:52:51 24° WNW 04:52:51 24° WNW 04:55:50 10° N
Cosmos 1656 Rocket 4.4 04:50:59 10° NW 04:55:28 27° WSW 04:55:59 27° WSW
ARIANE 5 R/B 3.9 04:54:40 10° NNW 04:58:34 22° WNW 05:00:02 19° W
Genesis I 4.4 04:57:38 10° NW 04:59:58 25° W 04:59:58 25° W
Cosmos 1605 Rocket 4.1 04:58:44 10° NNW 05:04:46 54° W 05:10:42 10° SSW
CZ-2D R/B 4.5 05:01:31 10° NNW 05:05:01 28° WNW 05:06:09 24° W
RESURS DK-1 4.3 05:04:08 15° WNW 05:05:08 16° NW 05:07:44 10° NNW
COSMOS 2455 3.6 05:00:11 10° NW 05:05:18 30° WSW 05:10:23 10° SSW
NOSS 2-2 (E) 4.2 05:04:42 25° WSW 05:06:34 40° NW 05:11:01 10° NNE
Cosmos 1452 Rocket 3.7 05:01:24 10° NNW 05:06:41 77° ENE 05:11:55 10° SSE
Okean O Rocket 1.7 05:02:32 10° NNE 05:07:00 80° ESE 05:11:24 10° S
ADEOS II 2.2 05:02:18 10° NNE 05:07:35 76° ESE 05:12:49 10° S
Meteor 2-5 Rocket 3.7 05:02:41 10° S 05:08:21 85° W 05:14:10 10° N
Cosmos 1733 3.4 05:05:35 10° NNW 05:09:13 45° W 05:11:58 16° SSW
Cosmos 1339 Rocket 4.5 05:05:00 13° SSW 05:10:22 61° W 05:16:25 10° N
Cosmos 1818 3.8 05:08:43 21° SW 05:12:15 58° NW 05:17:39 10° NNE
COSMOS 2487 2.4 05:11:54 19° SSW 05:14:23 80° WNW 05:17:57 10° NNE
Cosmos 2278 4.0 05:09:00 10° NNW 05:14:44 74° ENE 05:20:26 10° SSE
Cosmos 1271 Rocket 4.3 05:12:35 10° NW 05:14:44 17° W 05:14:44 17° W
Cosmos 1697 Rocket 4.4 05:10:14 10° N 05:15:23 36° ENE 05:20:30 10° SE
EO 1 Del DPAF 3.8 05:14:51 10° SSE 05:18:39 63° ENE 05:22:30 10° N
Orbus 7S? 4.2 05:15:53 10° NNW 05:18:45 35° NE 05:21:10 10° ESE
Cosmos 2369 3.8 05:15:41 10° NNW 05:21:27 82° ENE 05:27:11 10° SSE
USA 267 4.3 05:17:43 10° SSW 05:22:09 19° WSW 05:26:35 10° WNW
Tiangong 1 1.7 05:22:00 11° WNW 05:24:36 45° NNE 05:27:21 10° E
Cosmos 1420 Rocket 4.3 05:20:05 10° NNW 05:25:25 73° ENE 05:30:42 10° SSE
Cosmos 1048 Rocket 4.1 05:24:52 10° S 05:30:00 76° ESE 05:35:08 10° NNE
Cosmos 2100 Rocket 3.9 05:27:51 10° N 05:34:03 76° W 05:40:11 10° S
SOZ 4.2 05:32:39 17° WSW 05:34:13 67° NW 05:36:29 10° NE
CENTAUR R/B 3.2 05:26:26 10° NW 05:34:13 55° WSW 05:42:23 10° S
Cosmos 1000 Rocket 4.5 05:28:45 10° S 05:34:53 82° W 05:41:07 10° N
Cosmos 1269 Rocket 4.1 05:32:35 10° SSW 05:37:51 89° ESE 05:43:09 10° NNE
Cosmos 839 Rocket 4.4 05:33:02 10° NW 05:39:16 53° WSW 05:46:42 10° S
PAYLOAD B 4.4 05:35:39 10° N 05:41:07 58° WNW 05:46:32 10° SSW
Cosmos 2098 Rocket 4.0 05:40:07 10° WNW 05:41:36 13° W 05:42:23 12° WSW
Cosmos 2082 Rocket 2.2 05:36:58 10° SSW 05:42:41 81° WNW 05:48:25 10° NNE
Cosmos 2173 Rocket 4.0 05:38:22 10° NNW 05:44:38 69° W 05:50:46 10° S
Cosmos 389 Rocket 4.1 05:45:00 10° NW 05:47:24 17° W 05:49:48 10° SW
Cosmos 1980 Rocket 3.9 05:42:49 10° N 05:48:10 40° ENE 05:53:26 10° SE
Cosmos 1833 Rocket 2.7 05:42:41 10° SSW 05:48:17 79° WNW 05:53:55 10° NNE
Cosmos 1674 4.5 05:45:20 10° SSE 05:48:47 35° E 05:52:17 10° NNE
Meteor 2-17 Rocket 4.4 05:43:32 10° N 05:49:34 75° W 05:55:35 10° S
CZ-4B R/B 3.4 05:44:34 10° N 05:49:47 52° WNW 05:54:55 10° SSW
Meteor 1-31 Rocket 3.0 05:46:32 10° NNE 05:50:27 74° ESE 05:54:20 10° S
Cosmos 2061 Rocket 4.0 05:46:19 10° NNW 05:52:29 64° W 05:58:34 10° S
Cosmos 1707 4.5 05:50:35 10° WSW 05:53:04 16° WNW 05:55:33 10° NNW
Cosmos 1842 Rocket 4.0 05:49:20 10° NNW 05:53:26 39° W 05:57:32 10° SSW
CZ-2C R/B 3.8 05:50:04 10° S 05:54:22 52° W 05:58:43 10° NNW
Delta 2 Rocket 3.2 05:51:41 10° WSW 05:54:55 46° S 05:58:15 10° ESE
GPS 2-05 Rocket1 4.4 05:53:30 10° SW 05:56:23 24° SSE 05:59:12 10° ESE
Cosmos 1656 3.6 05:55:59 10° NNW 06:01:21 67° WSW 06:06:43 10° S
CZ-3 R/B 3.8 05:54:33 10° SW 06:04:28 21° S 06:09:02 10° SE
